Terminal Aerodrome Forecast
Issued by NWS

Home | Current Version | Previous Version | Text Only | Print | Product List | Glossary On
Versions: 1 2 3 4 5 6 7 8 9 10 11 12 13 14 15 16 17 18 19 20 21 22 23 24 25 26 27 28 29 30 31 32 33 34 35 36 37 38 39 40 41 42 43 44 45 46 47 48 49 50
000
FTUS43 KMKX 261752
TAFUES
TAF
KUES 261752Z 2618/2718 00000KT 6SM BR BKN035
     FM262100 VRB03KT P6SM OVC020
     FM270100 35004KT P6SM OVC025
     FM270500 31004KT P6SM BKN035
     FM271000 30008KT 6SM -SN OVC030
     FM271300 30009KT P6SM OVC020=

USA.gov is the U.S. government's official web portal to all federal, state and local government web resources and services.